Time,TemperatureF,DewpointF,PressureIn,WindDirection,WindDirectionDegrees,WindSpeedMPH,WindSpeedGustMPH,Humidity,HourlyPrecipIn,Conditions,Clouds,dailyrainin,SoftwareType,DateUTC
2013-05-06 00:02:00,43.0,-99.9,30.78,North,-999,0.0,1.0,-999,-99.99,,,-99.99,,2013-05-06 04:02:00,
2013-05-06 00:12:00,43.0,-99.9,30.08,North,-999,0.0,1.0,-999,-99.99,,,-99.99,,2013-05-06 04:12:00,
2013-05-06 00:23:00,43.0,-99.9,30.08,North,-999,0.0,1.0,-999,-99.99,,,-99.99,,2013-05-06 04:23:00,
2013-05-06 00:32:00,42.0,-99.9,30.78,West,278,0.0,6.0,-999,-99.99,,,-99.99,,2013-05-06 04:32:00,
2013-05-06 00:43:00,42.0,-99.9,30.08,West,278,0.0,6.0,-999,-99.99,,,-99.99,,2013-05-06 04:43:00,
2013-05-06 00:53:00,42.0,-99.9,30.78,West,278,0.0,6.0,-999,-99.99,,,-99.99,,2013-05-06 04:53:00,
2013-05-06 01:03:00,41.0,-99.9,30.79,West,265,5.0,5.0,-999,-99.99,,,-99.99,,2013-05-06 05:03:00,
2013-05-06 01:12:00,41.0,-99.9,30.09,West,265,5.0,5.0,-999,-99.99,,,-99.99,,2013-05-06 05:12:00,
2013-05-06 01:22:00,42.0,-99.9,30.08,West,278,0.0,6.0,-999,-99.99,,,-99.99,,2013-05-06 05:22:00,
2013-05-06 01:32:00,40.0,-99.9,30.09,SW,215,3.0,5.0,-999,-99.99,,,-99.99,,2013-05-06 05:32:00,
2013-05-06 01:42:00,40.0,-99.9,30.09,SW,215,3.0,5.0,-999,-99.99,,,-99.99,,2013-05-06 05:42:00,
2013-05-06 01:52:00,40.0,-99.9,30.79,SW,215,3.0,5.0,-999,-99.99,,,-99.99,,2013-05-06 05:52:00,
2013-05-06 02:02:00,40.0,-99.9,30.79,NW,310,0.0,4.0,-999,-99.99,,,-99.99,,2013-05-06 06:02:00,
2013-05-06 02:12:00,40.0,-99.9,30.09,NW,310,0.0,4.0,-999,-99.99,,,-99.99,,2013-05-06 06:12:00,
2013-05-06 02:22:00,40.0,-99.9,30.09,NW,310,0.0,4.0,-999,-99.99,,,-99.99,,2013-05-06 06:22:00,
2013-05-06 02:32:00,39.0,-99.9,30.79,WNW,293,2.0,4.0,-999,-99.99,,,-99.99,,2013-05-06 06:32:00,
2013-05-06 02:42:00,39.0,-99.9,30.79,WNW,293,2.0,4.0,-999,-99.99,,,-99.99,,2013-05-06 06:42:00,
2013-05-06 02:52:00,39.0,-99.9,30.09,WNW,293,2.0,4.0,-999,-99.99,,,-99.99,,2013-05-06 06:52:00,
2013-05-06 03:01:00,39.0,-99.9,30.09,NE,55,2.0,3.0,-999,-99.99,,,-99.99,,2013-05-06 07:01:00,
2013-05-06 03:11:00,39.0,-99.9,30.09,NE,55,2.0,3.0,-999,-99.99,,,-99.99,,2013-05-06 07:11:00,
2013-05-06 03:22:00,39.0,-99.9,30.09,NE,55,2.0,3.0,-999,-99.99,,,-99.99,,2013-05-06 07:22:00,
2013-05-06 03:32:00,41.0,-99.9,30.09,East,83,3.0,4.0,-999,-99.99,,,-99.99,,2013-05-06 07:32:00,
2013-05-06 03:40:00,41.0,-99.9,30.08,ENE,78,5.0,6.0,-999,-99.99,,,-99.99,,2013-05-06 07:40:00,
2013-05-06 03:42:00,41.0,-99.9,30.09,East,83,3.0,4.0,-999,-99.99,,,-99.99,,2013-05-06 07:42:00,
2013-05-06 03:52:00,41.0,-99.9,30.09,East,83,3.0,4.0,-999,-99.99,,,-99.99,,2013-05-06 07:52:00,
2013-05-06 04:02:00,41.0,-99.9,30.78,ENE,78,5.0,6.0,-999,-99.99,,,-99.99,,2013-05-06 08:02:00,
2013-05-06 04:12:00,41.0,-99.9,30.08,ENE,78,5.0,6.0,-999,-99.99,,,-99.99,,2013-05-06 08:12:00,
2013-05-06 04:22:00,41.0,-99.9,30.08,ENE,78,5.0,6.0,-999,-99.99,,,-99.99,,2013-05-06 08:22:00,
2013-05-06 04:32:00,41.0,-99.9,30.08,ENE,78,5.0,6.0,-999,-99.99,,,-99.99,,2013-05-06 08:32:00,
2013-05-06 04:40:00,41.0,-99.9,30.09,East,98,6.0,8.0,-999,-99.99,,,-99.99,,2013-05-06 08:40:00,
2013-05-06 05:02:00,41.0,-99.9,30.79,East,98,6.0,8.0,-999,-99.99,,,-99.99,,2013-05-06 09:02:00,
2013-05-06 05:11:00,41.0,-99.9,30.09,East,98,6.0,8.0,-999,-99.99,,,-99.99,,2013-05-06 09:11:00,
2013-05-06 05:22:00,41.0,-99.9,30.09,East,98,6.0,8.0,-999,-99.99,,,-99.99,,2013-05-06 09:22:00,
2013-05-06 05:33:00,41.0,-99.9,30.09,East,98,6.0,8.0,-999,-99.99,,,-99.99,,2013-05-06 09:33:00,
2013-05-06 05:40:00,39.0,-99.9,30.09,NE,47,2.0,4.0,-999,-99.99,,,-99.99,,2013-05-06 09:40:00,
2013-05-06 06:03:00,39.0,-99.9,30.79,NE,47,2.0,4.0,-999,-99.99,,,-99.99,,2013-05-06 10:03:00,
2013-05-06 06:12:00,39.0,-99.9,30.09,NE,47,2.0,4.0,-999,-99.99,,,-99.99,,2013-05-06 10:12:00,
2013-05-06 06:22:00,39.0,-99.9,30.09,NE,47,2.0,4.0,-999,-99.99,,,-99.99,,2013-05-06 10:22:00,
2013-05-06 06:33:00,39.0,-99.9,30.09,NE,47,2.0,4.0,-999,-99.99,,,-99.99,,2013-05-06 10:33:00,
2013-05-06 07:02:00,41.0,-99.9,30.80,East,87,7.0,9.0,-999,-99.99,,,-99.99,,2013-05-06 11:02:00,
2013-05-06 07:12:00,41.0,-99.9,30.10,East,87,7.0,9.0,-999,-99.99,,,-99.99,,2013-05-06 11:12:00,
2013-05-06 07:22:00,41.0,-99.9,30.10,East,87,7.0,9.0,-999,-99.99,,,-99.99,,2013-05-06 11:22:00,
2013-05-06 07:32:00,42.0,-99.9,30.81,East,97,5.0,9.0,-999,-99.99,,,-99.99,,2013-05-06 11:32:00,
2013-05-06 07:40:00,46.0,-99.9,30.12,East,96,3.0,5.0,-999,-99.99,,,-99.99,,2013-05-06 11:40:00,
2013-05-06 07:42:00,42.0,-99.9,30.11,East,97,5.0,9.0,-999,-99.99,,,-99.99,,2013-05-06 11:42:00,
2013-05-06 07:52:00,42.0,-99.9,30.11,East,97,5.0,9.0,-999,-99.99,,,-99.99,,2013-05-06 11:52:00,
2013-05-06 08:02:00,46.0,-99.9,30.82,East,96,3.0,5.0,-999,-99.99,,,-99.99,,2013-05-06 12:02:00,
2013-05-06 08:12:00,46.0,-99.9,30.12,East,96,3.0,5.0,-999,-99.99,,,-99.99,,2013-05-06 12:12:00,
2013-05-06 08:22:00,46.0,-99.9,30.12,East,96,3.0,5.0,-999,-99.99,,,-99.99,,2013-05-06 12:22:00,
2013-05-06 08:32:00,46.0,-99.9,30.12,East,96,3.0,5.0,-999,-99.99,,,-99.99,,2013-05-06 12:32:00,
2013-05-06 08:40:00,43.0,-99.9,30.13,ENE,57,3.0,5.0,-999,-99.99,,,-99.99,,2013-05-06 12:40:00,
2013-05-06 09:02:00,43.0,-99.9,30.83,ENE,57,3.0,5.0,-999,-99.99,,,-99.99,,2013-05-06 13:02:00,
2013-05-06 09:11:00,43.0,-99.9,30.13,ENE,57,3.0,5.0,-999,-99.99,,,-99.99,,2013-05-06 13:11:00,
2013-05-06 09:22:00,43.0,-99.9,30.13,ENE,57,3.0,5.0,-999,-99.99,,,-99.99,,2013-05-06 13:22:00,
2013-05-06 09:32:00,43.0,-99.9,30.13,ENE,57,3.0,5.0,-999,-99.99,,,-99.99,,2013-05-06 13:32:00,
2013-05-06 09:40:00,47.0,-99.9,30.13,East,84,5.0,8.0,-999,-99.99,,,-99.99,,2013-05-06 13:40:00,
2013-05-06 10:02:00,47.0,-99.9,30.83,East,84,5.0,8.0,-999,-99.99,,,-99.99,,2013-05-06 14:02:00,
2013-05-06 10:11:00,47.0,-99.9,30.13,East,84,5.0,8.0,-999,-99.99,,,-99.99,,2013-05-06 14:11:00,
2013-05-06 10:21:00,47.0,-99.9,30.13,East,84,5.0,8.0,-999,-99.99,,,-99.99,,2013-05-06 14:21:00,
2013-05-06 10:32:00,47.0,-99.9,30.13,East,84,5.0,8.0,-999,-99.99,,,-99.99,,2013-05-06 14:32:00,
2013-05-06 11:01:00,48.0,-99.9,30.83,East,79,5.0,7.0,-999,-99.99,,,-99.99,,2013-05-06 15:01:00,
2013-05-06 11:11:00,48.0,-99.9,30.13,East,79,5.0,7.0,-999,-99.99,,,-99.99,,2013-05-06 15:11:00,
2013-05-06 11:22:00,48.0,-99.9,30.13,East,79,5.0,7.0,-999,-99.99,,,-99.99,,2013-05-06 15:22:00,
2013-05-06 11:33:00,49.0,-99.9,30.82,ENE,78,5.0,8.0,-999,-99.99,,,-99.99,,2013-05-06 15:33:00,
2013-05-06 11:43:00,49.0,-99.9,30.12,ENE,78,5.0,8.0,-999,-99.99,,,-99.99,,2013-05-06 15:43:00,
2013-05-06 11:53:00,49.0,-99.9,30.82,ENE,78,5.0,8.0,-999,-99.99,,,-99.99,,2013-05-06 15:53:00,
2013-05-06 12:03:00,50.0,-99.9,30.82,ENE,75,6.0,7.0,-999,-99.99,,,-99.99,,2013-05-06 16:03:00,
2013-05-06 12:13:00,50.0,-99.9,30.12,ENE,75,6.0,7.0,-999,-99.99,,,-99.99,,2013-05-06 16:13:00,
2013-05-06 12:23:00,49.0,-99.9,30.12,ENE,78,5.0,8.0,-999,-99.99,,,-99.99,,2013-05-06 16:23:00,
2013-05-06 12:33:00,49.0,-99.9,30.12,ENE,78,5.0,8.0,-999,-99.99,,,-99.99,,2013-05-06 16:33:00,
2013-05-06 12:42:00,47.0,-99.9,30.12,NE,56,4.0,8.0,-999,-99.99,,,-99.99,,2013-05-06 16:42:00,
2013-05-06 12:52:00,47.0,-99.9,30.12,NE,56,4.0,8.0,-999,-99.99,,,-99.99,,2013-05-06 16:52:00,
2013-05-06 13:03:00,48.0,-99.9,30.82,ENE,59,4.0,6.0,-999,-99.99,,,-99.99,,2013-05-06 17:03:00,
2013-05-06 13:12:00,48.0,-99.9,30.12,ENE,59,4.0,6.0,-999,-99.99,,,-99.99,,2013-05-06 17:12:00,
2013-05-06 13:23:00,47.0,-99.9,30.82,NE,56,4.0,8.0,-999,-99.99,,,-99.99,,2013-05-06 17:23:00,
2013-05-06 13:32:00,47.0,-99.9,30.82,NE,56,4.0,8.0,-999,-99.99,,,-99.99,,2013-05-06 17:32:00,
2013-05-06 13:42:00,47.0,-99.9,30.82,NE,56,4.0,8.0,-999,-99.99,,,-99.99,,2013-05-06 17:42:00,
2013-05-06 13:52:00,48.0,-99.9,30.81,NNE,27,2.0,7.0,-999,-99.99,,,-99.99,,2013-05-06 17:52:00,
2013-05-06 14:02:00,45.0,-99.9,30.80,NNE,26,5.0,7.0,-999,-99.99,,,-99.99,,2013-05-06 18:02:00,
2013-05-06 14:12:00,45.0,-99.9,30.80,NNE,26,5.0,7.0,-999,-99.99,,,-99.99,,2013-05-06 18:12:00,
2013-05-06 14:22:00,45.0,-99.9,30.10,NNE,26,5.0,7.0,-999,-99.99,,,-99.99,,2013-05-06 18:22:00,
2013-05-06 14:32:00,48.0,-99.9,30.81,NNE,27,2.0,7.0,-999,-99.99,,,-99.99,,2013-05-06 18:32:00,
2013-05-06 14:40:00,49.0,-99.9,30.09,NNE,15,2.0,6.0,-999,-99.99,,,-99.99,,2013-05-06 18:40:00,
2013-05-06 14:43:00,48.0,-99.9,30.11,NNE,27,2.0,7.0,-999,-99.99,,,-99.99,,2013-05-06 18:43:00,
2013-05-06 14:52:00,48.0,-99.9,30.11,NNE,27,2.0,7.0,-999,-99.99,,,-99.99,,2013-05-06 18:52:00,
2013-05-06 15:01:00,49.0,-99.9,30.79,NNE,15,2.0,6.0,-999,-99.99,,,-99.99,,2013-05-06 19:01:00,
2013-05-06 15:11:00,49.0,-99.9,30.09,NNE,15,2.0,6.0,-999,-99.99,,,-99.99,,2013-05-06 19:11:00,
2013-05-06 15:22:00,49.0,-99.9,30.09,NNE,15,2.0,6.0,-999,-99.99,,,-99.99,,2013-05-06 19:22:00,
2013-05-06 15:32:00,49.0,-99.9,30.09,NNE,15,2.0,6.0,-999,-99.99,,,-99.99,,2013-05-06 19:32:00,
2013-05-06 15:40:00,49.0,-99.9,30.07,ENE,61,5.0,9.0,-999,-99.99,,,-99.99,,2013-05-06 19:40:00,
2013-05-06 16:02:00,49.0,-99.9,30.77,ENE,61,5.0,9.0,-999,-99.99,,,-99.99,,2013-05-06 20:02:00,
2013-05-06 16:11:00,49.0,-99.9,30.07,ENE,61,5.0,9.0,-999,-99.99,,,-99.99,,2013-05-06 20:11:00,
2013-05-06 16:22:00,49.0,-99.9,30.07,ENE,61,5.0,9.0,-999,-99.99,,,-99.99,,2013-05-06 20:22:00,
2013-05-06 16:32:00,49.0,-99.9,30.07,ENE,61,5.0,9.0,-999,-99.99,,,-99.99,,2013-05-06 20:32:00,
2013-05-06 16:40:00,52.0,-99.9,30.05,ENE,65,8.0,11.0,-999,-99.99,,,-99.99,,2013-05-06 20:40:00,
2013-05-06 17:01:00,52.0,-99.9,30.75,ENE,65,8.0,11.0,-999,-99.99,,,-99.99,,2013-05-06 21:01:00,
2013-05-06 17:11:00,52.0,-99.9,30.05,ENE,65,8.0,11.0,-999,-99.99,,,-99.99,,2013-05-06 21:11:00,
2013-05-06 17:22:00,52.0,-99.9,30.05,ENE,65,8.0,11.0,-999,-99.99,,,-99.99,,2013-05-06 21:22:00,
2013-05-06 17:33:00,52.0,-99.9,30.05,ENE,65,8.0,11.0,-999,-99.99,,,-99.99,,2013-05-06 21:33:00,
2013-05-06 17:40:00,51.0,-99.9,30.04,ENE,64,6.0,10.0,-999,-99.99,,,-99.99,,2013-05-06 21:40:00,
2013-05-06 18:03:00,51.0,-99.9,30.74,ENE,64,6.0,10.0,-999,-99.99,,,-99.99,,2013-05-06 22:03:00,
2013-05-06 18:12:00,51.0,-99.9,30.04,ENE,64,6.0,10.0,-999,-99.99,,,-99.99,,2013-05-06 22:12:00,
2013-05-06 18:22:00,51.0,-99.9,30.04,ENE,64,6.0,10.0,-999,-99.99,,,-99.99,,2013-05-06 22:22:00,
2013-05-06 18:33:00,51.0,-99.9,30.04,ENE,64,6.0,10.0,-999,-99.99,,,-99.99,,2013-05-06 22:33:00,
2013-05-06 18:40:00,53.0,-99.9,30.03,NE,35,3.0,7.0,-999,-99.99,,,-99.99,,2013-05-06 22:40:00,
2013-05-06 19:03:00,53.0,-99.9,30.73,NE,35,3.0,7.0,-999,-99.99,,,-99.99,,2013-05-06 23:03:00,
2013-05-06 19:12:00,53.0,-99.9,30.03,NE,35,3.0,7.0,-999,-99.99,,,-99.99,,2013-05-06 23:12:00,
2013-05-06 19:22:00,53.0,-99.9,30.03,NE,35,3.0,7.0,-999,-99.99,,,-99.99,,2013-05-06 23:22:00,
2013-05-06 19:32:00,53.0,-99.9,30.03,NE,35,3.0,7.0,-999,-99.99,,,-99.99,,2013-05-06 23:32:00,
2013-05-06 20:01:00,51.0,-99.9,30.73,NE,55,7.0,12.0,-999,-99.99,,,-99.99,,2013-05-07 00:01:00,
2013-05-06 20:12:00,51.0,-99.9,30.03,NE,55,7.0,12.0,-999,-99.99,,,-99.99,,2013-05-07 00:12:00,
2013-05-06 20:22:00,51.0,-99.9,30.03,NE,55,7.0,12.0,-999,-99.99,,,-99.99,,2013-05-07 00:22:00,
2013-05-06 20:32:00,51.0,-99.9,30.72,NE,53,10.0,13.0,-999,-99.99,,,-99.99,,2013-05-07 00:32:00,
2013-05-06 20:40:00,51.0,-99.9,30.02,ENE,74,8.0,11.0,-999,-99.99,,,-99.99,,2013-05-07 00:40:00,
2013-05-06 20:42:00,51.0,-99.9,30.72,NE,53,10.0,13.0,-999,-99.99,,,-99.99,,2013-05-07 00:42:00,
2013-05-06 20:52:00,51.0,-99.9,30.72,NE,53,10.0,13.0,-999,-99.99,,,-99.99,,2013-05-07 00:52:00,
2013-05-06 21:01:00,51.0,-99.9,30.02,ENE,74,8.0,11.0,-999,-99.99,,,-99.99,,2013-05-07 01:01:00,
2013-05-06 21:11:00,51.0,-99.9,30.02,ENE,74,8.0,11.0,-999,-99.99,,,-99.99,,2013-05-07 01:11:00,
2013-05-06 21:22:00,51.0,-99.9,30.02,ENE,74,8.0,11.0,-999,-99.99,,,-99.99,,2013-05-07 01:22:00,
2013-05-06 21:32:00,51.0,-99.9,30.02,ENE,74,8.0,11.0,-999,-99.99,,,-99.99,,2013-05-07 01:32:00,
2013-05-06 22:02:00,53.0,-99.9,30.74,East,93,7.0,12.0,-999,-99.99,,,-99.99,,2013-05-07 02:02:00,
2013-05-06 22:11:00,53.0,-99.9,30.04,East,93,7.0,12.0,-999,-99.99,,,-99.99,,2013-05-07 02:11:00,
2013-05-06 22:22:00,53.0,-99.9,30.04,East,93,7.0,12.0,-999,-99.99,,,-99.99,,2013-05-07 02:22:00,
2013-05-06 22:32:00,54.0,-99.9,30.04,ENE,77,11.0,14.0,-999,-99.99,,,-99.99,,2013-05-07 02:32:00,
2013-05-06 22:42:00,54.0,-99.9,30.74,ENE,77,11.0,14.0,-999,-99.99,,,-99.99,,2013-05-07 02:42:00,
2013-05-06 22:52:00,54.0,-99.9,30.04,ENE,77,11.0,14.0,-999,-99.99,,,-99.99,,2013-05-07 02:52:00,
2013-05-06 23:02:00,58.0,-99.9,30.75,ENE,73,13.0,17.0,-999,-99.99,,,-99.99,,2013-05-07 03:02:00,
2013-05-06 23:12:00,58.0,-99.9,30.05,ENE,73,13.0,17.0,-999,-99.99,,,-99.99,,2013-05-07 03:12:00,
2013-05-06 23:22:00,58.0,-99.9,30.05,ENE,73,13.0,17.0,-999,-99.99,,,-99.99,,2013-05-07 03:22:00,
2013-05-06 23:33:00,58.0,-99.9,30.75,East,89,8.0,17.0,-999,-99.99,,,-99.99,,2013-05-07 03:33:00,
2013-05-06 23:40:00,46.0,-99.9,30.05,East,82,4.0,5.0,-999,-99.99,,,-99.99,,2013-05-07 03:40:00,
2013-05-06 23:43:00,58.0,-99.9,30.05,East,89,8.0,17.0,-999,-99.99,,,-99.99,,2013-05-07 03:43:00,
2013-05-06 23:53:00,47.0,-99.9,30.75,ENE,62,2.0,11.0,-999,-99.99,,,-99.99,,2013-05-07 03:53:00,